GW0614 Weather Reports


Display with metric or nautical units.
time (UTC)temp
F
wind
direction
speed
MPH
gust
MPH
rain 1hr
in
rain 24hr
in
rain mn
in
humidity
%
barometer
mb
20260831225507 69 357 0.0 0.0 0.00 0.00 0.00 98 1022.4
20260831225006 69 357 0.0 0.0 0.00 0.00 0.00 97 1022.2
20260831224501 70 357 0.0 0.0 0.00 0.00 0.00 97 1022.4
20260831223956 70 357 0.0 0.0 0.00 0.00 0.00 97 1022.2
20260831223452 70 357 0.0 0.0 0.00 0.00 0.00 96 1022.5
20260831222948 70 357 0.0 0.0 0.00 0.00 0.00 96 1022.3
20260831222444 71 357 0.0 0.0 0.00 0.00 0.00 95 1022.3
20260831221943 71 357 0.0 0.0 0.00 0.00 0.00 95 1022.2
20260831221439 71 357 0.0 0.0 0.00 0.00 0.00 96 1022.2
20260831220935 72 357 0.0 0.0 0.00 0.00 0.00 95 1022.3
20260831220430 72 357 0.0 0.0 0.00 0.00 0.00 95 1022.3
20260831215925 72 357 0.0 0.0 0.00 0.00 0.00 94 1022.4
20260831215421 72 357 0.0 0.0 0.00 0.00 0.00 94 1022.3
20260831214917 72 357 0.0 0.0 0.00 0.00 0.00 93 1022.2
20260831214414 73 357 0.0 0.0 0.00 0.00 0.00 93 1022.5
20260831213909 73 357 0.0 0.0 0.00 0.00 0.00 92 1022.5
20260831213406 73 357 0.0 0.0 0.00 0.00 0.00 92 1022.6
20260831212901 73 357 0.0 0.0 0.00 0.00 0.00 92 1022.5
20260831212357 74 357 0.0 0.0 0.00 0.00 0.00 91 1022.3
20260831211856 74 357 0.0 0.0 0.00 0.00 0.00 91 1022.3
20260831211356 74 357 0.0 0.0 0.00 0.00 0.00 85 1022.5
20260831210855 74 358 0.0 0.0 0.00 0.00 0.00 91 1022.3
20260831210351 74 358 0.0 0.0 0.00 0.00 0.00 91 1022.4
20260831205847 74 357 0.0 0.0 0.00 0.00 0.00 88 1022.4
20260831205343 75 357 0.0 0.0 0.00 0.00 0.00 90 1022.4
20260831204837 75 358 0.0 0.0 0.00 0.00 0.00 89 1022.3
20260831204336 75 358 0.0 0.0 0.00 0.00 0.00 87 1022.3
20260831203836 75 358 0.0 0.0 0.00 0.00 0.00 89 1022.5
20260831203331 75 357 0.0 0.0 0.00 0.00 0.00 84 1022.4
20260831202829 75 357 0.0 0.0 0.00 0.00 0.00 86 1022.4
20260831202324 76 357 0.0 0.0 0.00 0.00 0.00 79 1022.3
20260831201824 77 358 0.0 0.0 0.00 0.00 0.00 86 1022.6
20260831201323 76 358 0.0 0.0 0.00 0.00 0.00 84 1022.4
20260831200819 77 358 0.0 0.0 0.00 0.00 0.00 78 1022.3
20260831200314 77 6 0.0 0.0 0.00 0.00 0.00 84 1022.4
20260831195809 78 6 0.0 0.0 0.00 0.00 0.00 77 1022.3
20260831195306 77 4 0.0 0.0 0.00 0.00 0.00 82 1022.4
20260831194800 77 30 0.0 0.0 0.00 0.00 0.00 79 1022.6
20260831194255 76 64 0.0 0.0 0.00 0.00 0.00 80 1022.6
20260831193749 77 22 0.0 0.0 0.00 0.00 0.00 84 1022.6
20260831193244 76 22 0.0 0.0 0.00 0.00 0.00 83 1022.7
20260831192739 77 358 0.0 1.0 0.00 0.00 0.00 78 1022.6
20260831192234 77 195 0.0 0.0 0.00 0.00 0.00 83 1022.9
20260831191730 77 0 0.0 0.0 0.00 0.00 0.00 80 1023.0
20260831191226 76 34 0.0 0.0 0.00 0.00 0.00 82 1023.0
20260831190721 76 1 0.0 0.0 0.00 0.00 0.00 81 1023.2
20260831190221 76 359 0.0 0.0 0.00 0.00 0.00 85 1023.1
20260831185715 77 359 0.0 0.0 0.00 0.00 0.00 86 1023.1
20260831185211 77 359 0.0 0.0 0.00 0.00 0.00 86 1023.3
20260831184710 77 359 0.0 0.0 0.00 0.00 0.00 83 1023.3
20260831184206 77 1 0.0 0.0 0.00 0.00 0.00 79 1023.0
20260831183705 77 1 0.0 0.0 0.00 0.00 0.00 83 1022.9
20260831183200 77 0 0.0 0.0 0.00 0.00 0.00 79 1022.9
20260831182659 77 0 0.0 0.0 0.00 0.00 0.00 81 1023.0
20260831182155 77 1 0.0 0.0 0.00 0.00 0.00 78 1023.1
20260831181649 78 359 0.0 0.0 0.00 0.00 0.00 80 1023.5
20260831181144 78 359 0.0 0.0 0.00 0.00 0.00 78 1023.3
20260831180639 78 359 0.0 0.0 0.00 0.00 0.00 78 1023.7
20260831180134 78 359 0.0 0.0 0.00 0.00 0.00 81 1023.5
20260831175629 77 358 0.0 0.0 0.00 0.00 0.00 88 1023.5
20260831175126 77 358 0.0 0.0 0.00 0.00 0.00 79 1023.2
20260831174625 77 358 0.0 0.0 0.00 0.00 0.00 81 1023.3
20260831174120 76 359 0.0 0.0 0.00 0.00 0.00 81 1023.4
20260831173618 75 358 0.0 0.0 0.00 0.00 0.00 87 1023.1
20260831173115 75 358 0.0 0.0 0.00 0.00 0.00 88 1023.3
20260831172614 75 358 0.0 0.0 0.00 0.00 0.00 86 1023.6
20260831172114 75 358 0.0 0.0 0.00 0.00 0.00 83 1023.5
20260831171610 75 357 0.0 0.0 0.00 0.00 0.00 84 1023.7
20260831171107 76 357 0.0 0.0 0.00 0.00 0.00 79 1023.8
20260831170603 77 357 0.0 0.0 0.00 0.00 0.00 76 1023.8
20260831170101 78 357 0.0 0.0 0.00 0.00 0.00 81 1024.2
20260831165555 78 358 0.0 0.0 0.00 0.00 0.00 77 1024.1
20260831165052 78 357 2.0 2.0 0.00 0.00 0.00 75 1024.0
20260831164547 77 333 0.0 0.0 0.00 0.00 0.00 81 1024.1
20260831164043 78 330 0.0 0.0 0.00 0.00 0.00 77 1024.1
20260831163537 79 331 0.0 0.0 0.00 0.00 0.00 74 1024.0
20260831163033 76 307 0.0 0.0 0.00 0.00 0.00 83 1024.0
20260831162532 76 306 0.0 0.0 0.00 0.00 0.00 86 1023.8
20260831162030 76 328 0.0 0.0 0.00 0.00 0.00 82 1024.2
20260831161527 77 350 0.0 0.0 0.00 0.00 0.00 76 1024.1
20260831161023 77 0 0.0 0.0 0.00 0.00 0.00 76 1024.4
20260831160522 75 15 0.0 0.0 0.00 0.00 0.00 79 1024.5
20260831160018 75 12 0.0 0.0 0.00 0.00 0.00 82 1024.2
20260831155512 75 18 1.0 1.0 0.00 0.00 0.00 78 1024.3
20260831155007 76 320 0.0 0.0 0.00 0.00 0.00 86 1024.6
20260831154504 78 356 0.0 1.0 0.00 0.00 0.00 75 1024.6
20260831154003 77 333 0.0 0.0 0.00 0.00 0.00 79 1024.6
20260831153457 77 338 0.0 0.0 0.00 0.00 0.00 78 1024.3
20260831152954 76 338 0.0 0.0 0.00 0.00 0.00 82 1024.5
20260831152449 75 358 0.0 0.0 0.00 0.00 0.00 83 1024.7
20260831151944 75 0 0.0 0.0 0.00 0.00 0.00 86 1024.6
20260831151443 73 7 0.0 1.0 0.00 0.00 0.00 85 1024.7
20260831150938 74 325 0.0 0.0 0.00 0.00 0.00 85 1024.6
20260831150434 73 345 0.0 0.0 0.00 0.00 0.00 86 1024.5
20260831145933 72 344 0.0 0.0 0.00 0.00 0.00 85 1024.6
20260831145430 72 344 0.0 0.0 0.00 0.00 0.00 86 1024.6
20260831144925 72 345 0.0 0.0 0.00 0.00 0.00 86 1024.3
20260831144415 72 345 0.0 0.0 0.00 0.00 0.00 84 1024.6
20260831143916 72 345 0.0 0.0 0.00 0.00 0.00 85 1024.5
20260831143411 72 346 0.0 0.0 0.00 0.00 0.00 85 1024.5
20260831142907 72 346 0.0 0.0 0.00 0.00 0.00 85 1024.5
20260831142402 72 346 0.0 0.0 0.00 0.00 0.00 85 1024.4
20260831141856 72 345 0.0 0.0 0.00 0.00 0.00 86 1024.5
20260831141350 72 346 0.0 0.0 0.00 0.00 0.00 87 1024.6
20260831140845 71 346 0.0 0.0 0.00 0.00 0.00 91 1024.4
20260831140340 70 345 0.0 0.0 0.00 0.00 0.00 92 1024.3
20260831135838 70 345 0.0 0.0 0.00 0.00 0.00 89 1024.3
20260831135333 70 345 0.0 0.0 0.00 0.00 0.00 91 1024.5
20260831134829 70 345 0.0 0.0 0.00 0.00 0.00 91 1024.3
20260831134326 70 345 0.0 0.0 0.00 0.00 0.00 92 1024.3
20260831133824 70 345 0.0 0.0 0.00 0.00 0.00 89 1024.3
20260831133324 70 345 0.0 0.0 0.00 0.00 0.00 91 1024.3
20260831132819 70 345 0.0 0.0 0.00 0.00 0.00 94 1024.5
20260831132314 70 346 0.0 0.0 0.00 0.00 0.00 90 1024.5
20260831131809 70 345 0.0 0.0 0.00 0.00 0.00 94 1024.4
20260831131305 69 344 0.0 0.0 0.00 0.00 0.00 97 1024.5
20260831130759 68 345 0.0 0.0 0.00 0.00 0.00 99 1024.2
20260831130255 66 346 0.0 0.0 0.00 0.00 0.00 99 1024.4
20260831125754 66 345 0.0 0.0 0.00 0.00 0.00 99 1024.3
20260831125250 66 344 0.0 0.0 0.00 0.00 0.00 99 1024.4
20260831124744 65 344 0.0 1.0 0.00 0.00 0.00 99 1024.6
20260831124241 66 26 0.0 0.0 0.00 0.00 0.00 99 1024.5
20260831123740 66 34 0.0 0.0 0.00 0.00 0.00 99 1024.8
20260831123239 66 34 0.0 0.0 0.00 0.00 0.00 99 1024.6
20260831122733 65 34 0.0 0.0 0.00 0.00 0.00 99 1024.6
20260831122230 65 34 0.0 0.0 0.00 0.00 0.00 99 1024.7
20260831121728 64 34 0.0 0.0 0.00 0.00 0.00 99 1024.7
20260831121225 63 34 0.0 0.0 0.00 0.00 0.00 99 1024.6
20260831120721 63 34 0.0 0.0 0.00 0.00 0.00 99 1024.7
20260831120215 63 34 0.0 0.0 0.00 0.00 0.00 99 1024.6
20260831115711 62 34 0.0 0.0 0.00 0.00 0.00 99 1024.6
20260831115207 62 34 0.0 0.0 0.00 0.00 0.00 99 1024.5
20260831114706 61 34 0.0 0.0 0.00 0.00 0.00 99 1024.6
20260831114205 61 34 0.0 0.0 0.00 0.00 0.00 99 1024.5
20260831113701 61 34 0.0 0.0 0.00 0.00 0.00 99 1024.5
20260831113155 61 34 0.0 0.0 0.00 0.00 0.00 99 1024.5
20260831112654 61 34 0.0 0.0 0.00 0.00 0.00 99 1024.3
20260831112150 61 34 0.0 0.0 0.00 0.00 0.00 99 1024.4
20260831111645 60 34 0.0 0.0 0.00 0.00 0.00 99 1024.2
20260831111141 60 34 0.0 0.0 0.00 0.00 0.00 99 1024.1
20260831110637 60 34 0.0 0.0 0.00 0.00 0.00 99 1024.0
20260831110132 60 34 0.0 0.0 0.00 0.00 0.00 99 1023.5
20260831105631 60 34 0.0 0.0 0.00 0.00 0.00 99 1024.0
20260831105126 60 34 0.0 0.0 0.00 0.00 0.00 99 1023.8
20260831104621 60 34 0.0 0.0 0.00 0.00 0.00 99 1023.9
20260831104118 60 34 0.0 0.0 0.00 0.00 0.00 99 1023.8
20260831103613 60 34 0.0 0.0 0.00 0.00 0.00 99 1023.8
20260831103109 60 34 0.0 0.0 0.00 0.00 0.00 99 1023.8
20260831102609 60 34 0.0 0.0 0.00 0.00 0.00 99 1023.7
20260831102104 60 34 0.0 0.0 0.00 0.00 0.00 99 1023.6
20260831101603 60 34 0.0 0.0 0.00 0.00 0.00 99 1023.5
20260831101100 60 34 0.0 0.0 0.00 0.00 0.00 99 1023.5
20260831100555 60 34 0.0 0.0 0.00 0.00 0.00 99 1023.4
20260831100052 60 34 0.0 0.0 0.00 0.00 0.00 99 1023.5
20260831095549 60 34 0.0 0.0 0.00 0.00 0.00 99 1023.5
20260831095044 60 34 0.0 0.0 0.00 0.00 0.00 99 1023.7
20260831094540 60 34 0.0 0.0 0.00 0.00 0.00 99 1023.6
20260831094036 60 34 0.0 0.0 0.00 0.00 0.00 99 1023.6
20260831093531 60 34 0.0 0.0 0.00 0.00 0.00 99 1023.3
20260831093028 60 34 0.0 0.0 0.00 0.00 0.00 99 1023.3
20260831092523 60 34 0.0 0.0 0.00 0.00 0.00 99 1023.4
20260831092019 60 34 0.0 0.0 0.00 0.00 0.00 99 1023.4
20260831091513 60 34 0.0 0.0 0.00 0.00 0.00 99 1023.4
20260831091009 60 34 0.0 0.0 0.00 0.00 0.00 99 1023.6
20260831090504 60 34 0.0 0.0 0.00 0.00 0.00 99 1023.5
20260831090000 60 34 0.0 0.0 0.00 0.00 0.00 99 1023.1
20260831085455 60 34 0.0 0.0 0.00 0.00 0.00 99 1023.4
20260831084954 60 34 0.0 0.0 0.00 0.00 0.00 99 1023.4
20260831084451 60 34 0.0 0.0 0.00 0.00 0.00 99 1023.2
20260831083947 60 34 0.0 0.0 0.00 0.00 0.00 99 1023.3
20260831083441 60 34 0.0 0.0 0.00 0.00 0.00 99 1023.4
20260831082936 60 34 0.0 0.0 0.00 0.00 0.00 99 1023.4
20260831082435 60 34 0.0 0.0 0.00 0.00 0.00 99 1023.5
20260831081931 60 34 0.0 0.0 0.00 0.00 0.00 99 1023.6
20260831081426 60 34 0.0 0.0 0.00 0.00 0.00 99 1023.3
20260831080923 60 34 0.0 0.0 0.00 0.00 0.00 99 1023.3
20260831080417 61 34 0.0 0.0 0.00 0.00 0.00 99 1023.2
20260831075913 61 34 0.0 0.0 0.00 0.00 0.00 99 1022.9
20260831075408 61 34 0.0 0.0 0.00 0.00 0.00 99 1022.9
20260831074903 61 34 0.0 0.0 0.00 0.00 0.00 99 1022.9
20260831074402 61 34 0.0 0.0 0.00 0.00 0.00 99 1023.0
20260831073857 61 34 0.0 0.0 0.00 0.00 0.00 99 1023.0
20260831073356 61 34 0.0 0.0 0.00 0.00 0.00 99 1023.1
20260831072852 62 34 0.0 0.0 0.00 0.00 0.00 99 1023.1
20260831072347 62 34 0.0 0.0 0.00 0.00 0.00 99 1022.9
20260831071843 62 34 0.0 0.0 0.00 0.00 0.00 99 1023.1
20260831071342 62 34 0.0 0.0 0.00 0.00 0.00 99 1023.1
20260831070837 63 34 0.0 0.0 0.00 0.00 0.00 99 1023.1
20260831070336 63 34 0.0 0.0 0.00 0.00 0.00 99 1023.4
20260831065836 63 34 0.0 0.0 0.00 0.00 0.00 99 1023.2
20260831065333 63 34 0.0 0.0 0.00 0.00 0.00 99 1023.2
20260831064829 63 34 0.0 0.0 0.00 0.00 0.00 99 1023.1
20260831064324 62 34 0.0 0.0 0.00 0.00 0.00 99 1023.2
20260831063820 63 34 0.0 0.0 0.00 0.00 0.00 99 1023.2
20260831063320 63 34 0.0 0.0 0.00 0.00 0.00 99 1023.3
20260831062815 63 34 0.0 0.0 0.00 0.00 0.00 99 1023.4
20260831062310 64 34 0.0 0.0 0.00 0.00 0.00 99 1023.3
20260831061809 64 34 0.0 0.0 0.00 0.00 0.00 99 1023.1
20260831061303 64 34 0.0 0.0 0.00 0.00 0.00 99 1023.1
20260831060759 64 34 0.0 0.0 0.00 0.00 0.00 99 1023.3
20260831060259 64 34 0.0 0.0 0.00 0.00 0.00 99 1023.4
20260831055758 64 34 0.0 0.0 0.00 0.00 0.00 99 1023.6
20260831055253 64 34 0.0 0.0 0.00 0.00 0.00 99 1023.4
20260831054748 64 34 0.0 0.0 0.00 0.00 0.00 99 1023.6
20260831054243 64 34 0.0 0.0 0.00 0.00 0.00 99 1023.5
20260831053742 64 34 0.0 0.0 0.00 0.00 0.00 99 1023.4
20260831053241 64 34 0.0 0.0 0.00 0.00 0.00 99 1023.2
20260831052736 64 34 0.0 0.0 0.00 0.00 0.00 99 1023.4
20260831052234 64 34 0.0 0.0 0.00 0.00 0.00 99 1023.4
20260831051733 64 34 0.0 0.0 0.00 0.00 0.00 99 1023.4
20260831051232 64 34 0.0 0.0 0.00 0.00 0.00 99 1023.4
20260831050727 64 34 0.0 0.0 0.00 0.00 0.00 99 1023.4
20260831050225 64 34 0.0 0.0 0.00 0.00 0.00 99 1023.4
20260831045721 64 34 0.0 0.0 0.00 0.00 0.00 99 1023.5
20260831045215 64 34 0.0 0.0 0.00 0.00 0.00 99 1023.2
20260831044710 64 34 0.0 0.0 0.00 0.00 0.00 99 1023.4
20260831044205 64 34 0.0 0.0 0.00 0.00 0.00 99 1023.3
20260831043701 64 34 0.0 0.0 0.00 0.00 0.00 99 1023.3
20260831043156 64 34 0.0 0.0 0.00 0.00 0.00 99 1023.3
20260831042655 64 34 0.0 0.0 0.00 0.00 0.00 99 1023.4
20260831042150 64 34 0.0 0.0 0.00 0.00 0.00 99 1023.4
20260831041644 64 34 0.0 0.0 0.00 0.00 0.00 99 1023.5
20260831041138 64 34 0.0 0.0 0.00 0.00 0.00 99 1023.3
20260831040634 64 34 0.0 0.0 0.00 0.00 0.00 99 1023.5
20260831040133 64 34 0.0 0.0 0.00 0.00 0.00 99 1023.1
20260831035632 64 34 0.0 0.0 0.00 0.00 0.00 99 1023.5
20260831035126 64 34 0.0 0.0 0.00 0.00 0.00 99 1023.4
20260831034625 64 34 0.0 0.0 0.00 0.00 0.00 99 1023.4
20260831034120 64 34 0.0 0.0 0.00 0.00 0.00 99 1023.3
20260831033616 64 34 0.0 0.0 0.00 0.00 0.00 99 1023.2
20260831033111 64 34 0.0 0.0 0.00 0.00 0.00 99 1023.4
20260831032610 64 34 0.0 0.0 0.00 0.00 0.00 99 1023.2
20260831032106 64 34 0.0 0.0 0.00 0.00 0.00 99 1023.4
20260831031601 64 34 0.0 0.0 0.00 0.00 0.00 99 1023.2
20260831031059 64 34 0.0 0.0 0.00 0.00 0.00 99 1023.3
20260831030559 64 34 0.0 0.0 0.00 0.00 0.00 99 1023.3
20260831030058 65 34 0.0 0.0 0.00 0.00 0.00 99 1023.3
20260831025556 65 34 0.0 0.0 0.00 0.00 0.00 99 1023.4
20260831025052 65 34 0.0 0.0 0.00 0.00 0.00 99 1023.2
20260831024548 65 34 0.0 0.0 0.00 0.00 0.00 99 1023.3
20260831024046 65 34 0.0 0.0 0.00 0.00 0.00 99 1023.0
20260831023545 65 34 0.0 0.0 0.00 0.00 0.00 99 1023.2
20260831023039 65 34 0.0 0.0 0.00 0.00 0.00 99 1023.3
20260831022539 65 34 0.0 0.0 0.00 0.00 0.00 99 1023.1
20260831022034 65 34 0.0 0.0 0.00 0.00 0.00 99 1023.2
20260831021533 65 34 0.0 0.0 0.00 0.00 0.00 99 1022.9
20260831021030 65 34 0.0 0.0 0.00 0.00 0.00 99 1023.1
20260831020525 66 34 0.0 0.0 0.00 0.00 0.00 99 1023.3
20260831020019 66 34 0.0 0.0 0.00 0.00 0.00 99 1023.2
20260831015515 66 34 0.0 0.0 0.00 0.00 0.00 99 1023.1
20260831015010 66 34 0.0 0.0 0.00 0.00 0.00 99 1023.1
20260831014504 66 34 0.0 0.0 0.00 0.00 0.00 99 1023.1
20260831013959 66 34 0.0 0.0 0.00 0.00 0.00 99 1022.8
20260831013456 66 34 0.0 0.0 0.00 0.00 0.00 99 1022.8
20260831012949 66 34 0.0 0.0 0.00 0.00 0.00 99 1022.8
20260831012445 66 34 0.0 0.0 0.00 0.00 0.00 99 1022.9
20260831011944 66 33 0.0 0.0 0.00 0.00 0.00 99 1022.7
20260831011439 66 33 0.0 0.0 0.00 0.00 0.00 99 1022.7
20260831010935 66 34 0.0 0.0 0.00 0.00 0.00 99 1022.6
20260831010430 66 34 0.0 0.0 0.00 0.00 0.00 99 1022.8
20260831005925 66 34 0.0 0.0 0.00 0.00 0.00 99 1022.7
20260831005421 66 34 0.0 0.0 0.00 0.00 0.00 99 1022.4
20260831004920 66 34 0.0 0.0 0.00 0.00 0.00 99 1022.2
20260831004417 66 34 0.0 0.0 0.00 0.00 0.00 99 1022.2
20260831003912 66 34 0.0 0.0 0.00 0.00 0.00 99 1022.1
20260831003408 66 34 0.0 0.0 0.00 0.00 0.00 99 1022.3
20260831002907 66 34 0.0 0.0 0.00 0.00 0.00 99 1022.1
20260831002407 66 34 0.0 0.0 0.00 0.00 0.00 99 1022.0
20260831001902 66 34 0.0 0.0 0.00 0.00 0.00 99 1021.8
20260831001357 67 34 0.0 0.0 0.00 0.00 0.00 99 1021.8
20260831000855 67 34 0.0 0.0 0.00 0.00 0.00 99 1022.0
20260831000350 67 34 0.0 0.0 0.00 0.00 0.00 99 1021.7
20260830235848 67 34 0.0 0.0 0.00 0.00 0.00 99 1021.6
20260830235343 67 34 0.0 0.0 0.00 0.00 0.00 99 1021.6
20260830234838 67 34 0.0 0.0 0.00 0.00 0.00 99 1021.8
20260830234334 68 34 0.0 0.0 0.00 0.00 0.00 99 1021.3
20260830233830 68 34 0.0 0.0 0.00 0.00 0.00 98 1021.4
20260830233325 68 34 0.0 0.0 0.00 0.00 0.00 97 1021.4
20260830232821 68 350 0.0 0.0 0.00 0.00 0.00 96 1021.4
20260830232316 69 3 0.0 0.0 0.00 0.00 0.00 96 1021.6
20260830231812 68 3 0.0 1.0 0.00 0.00 0.00 95 1021.5
20260830231307 69 7 1.0 1.0 0.00 0.00 0.00 99 1021.4
20260830230801 69 5 0.0 0.0 0.00 0.00 0.00 99 1021.5
20260830230257 69 5 0.0 0.0 0.00 0.00 0.00 99 1021.4
20260830225756 69 5 0.0 0.0 0.00 0.00 0.00 99 1021.5